Flag for Marshall Islands Weather past 2 weeks in Kwajalein, Marshall Islands

87 °F


Feels Like: 96 °F
Forecast: 80 / 87 °F
Wind: 15 mph from East

Location: Kwajalein / Bucholz

Current Time: Dec 1, 2015 at 12:55:09 PM

Latest Report: Dec 1, 2015 at 12:20 PM

Visibility: 10 mi

Pressure: 29.81 "Hg

Humidity: 70%

Dew point: 76 °F

Location of KwajaleinLocation

Historic Weather in Kwajalein — Graph


Kwajalein temperature yesterday

Maximum temperature yesterday: 87 °F (at 12:20 PM)
Minimum temperature yesterday: 80 °F (at 1:20 AM)
Average temperature yesterday: 83 °F

Past Weeks' High & Low Weather Summary

High87 °F (Nov 23, 12:40 PM)95% (Nov 17, 5:00 PM)29.90 "Hg (Nov 17, 5:00 PM)
Low75 °F (Nov 21, 4:00 AM)61% (Nov 28, 4:40 PM)29.69 "Hg (Nov 16, 3:20 PM)
Average82 °F78%29.79 "Hg
* Reported Nov 16 11:00 AM — Dec 1 11:20 AM, Kwajalein, Weather by CustomWeather, © 2015

Note: Actual official high and low records may vary slightly from our data, if they occured in-between our weather recording intervals... More about our weather records


Kwajalein weather history for previous 24 hours

Time TempWeatherWind HumidityBarometerVisibility
11:20 AM
Tue, Dec 1
85 °FScattered clouds.15 mph74%29.83 "Hg10 mi
10:20 AM85 °FSunny.14 mph74%29.84 "Hg10 mi
10:00 AM85 °FScattered clouds.14 mph74%29.84 "Hg10 mi
9:20 AM85 °FScattered clouds.15 mph75%29.84 "Hg10 mi
9:00 AM84 °FScattered clouds.17 mph77%29.83 "Hg10 mi
8:40 AM83 °FScattered clouds.14 mph79%29.83 "Hg10 mi
8:20 AM83 °FScattered clouds.15 mph80%29.83 "Hg10 mi
8:00 AM82 °FScattered clouds.15 mph81%29.82 "Hg10 mi
7:40 AM82 °FPartly sunny.14 mph82%29.81 "Hg10 mi
7:20 AM82 °FSunny.13 mph82%29.81 "Hg10 mi
7:00 AM82 °FScattered clouds.18 mph82%29.81 "Hg10 mi
6:20 AM82 °FPassing clouds.16 mph84%29.79 "Hg10 mi
6:00 AM82 °FPassing clouds.15 mph84%29.78 "Hg10 mi
5:40 AM82 °FClear.14 mph85%29.78 "Hg10 mi
5:20 AM81 °FClear.13 mph85%29.77 "Hg10 mi
5:00 AM81 °FPassing clouds.12 mph85%29.77 "Hg10 mi
4:40 AM82 °FPartly cloudy.10 mph84%29.77 "Hg10 mi
4:20 AM82 °FPassing clouds.12 mph83%29.77 "Hg10 mi
4:00 AM82 °FPassing clouds.9 mph81%29.77 "Hg10 mi
3:40 AM82 °FPassing clouds.13 mph81%29.77 "Hg10 mi
3:20 AM82 °FPassing clouds.12 mph80%29.77 "Hg10 mi
3:00 AM82 °FPassing clouds.9 mph80%29.78 "Hg10 mi
2:40 AM82 °FClear.10 mph81%29.78 "Hg10 mi
2:20 AM82 °FPassing clouds.9 mph81%29.78 "Hg10 mi
2:00 AM82 °FPassing clouds.10 mph81%29.78 "Hg10 mi
1:20 AM82 °FPassing clouds.9 mph81%29.79 "Hg10 mi
1:00 AM82 °FPassing clouds.9 mph81%29.80 "Hg10 mi
12:20 AM82 °FPassing clouds.12 mph81%29.80 "Hg10 mi
12:00 AM82 °FPassing clouds.12 mph81%29.80 "Hg10 mi
11:20 PM
Mon, Nov 30
82 °FClear.14 mph81%29.80 "Hg10 mi
11:00 PM82 °FClear.13 mph80%29.80 "Hg10 mi
10:40 PM82 °FClear.14 mph80%29.81 "Hg10 mi
10:20 PM82 °FClear.15 mph79%29.81 "Hg10 mi
10:00 PM82 °FPassing clouds.10 mph79%29.82 "Hg10 mi
9:40 PM82 °FClear.12 mph79%29.82 "Hg10 mi
9:20 PM82 °FClear.9 mph79%29.82 "Hg10 mi
9:00 PM82 °FClear.12 mph79%29.81 "Hg10 mi
8:40 PM82 °FClear.10 mph79%29.81 "Hg10 mi
7:00 PM83 °FPassing clouds.9 mph78%29.78 "Hg10 mi
6:40 PM83 °FPassing clouds.10 mph77%29.78 "Hg10 mi
6:00 PM84 °FScattered clouds.10 mph74%29.77 "Hg10 mi
5:20 PM85 °FSunny.9 mph73%29.75 "Hg10 mi
5:00 PM85 °FSunny.10 mph73%29.75 "Hg10 mi
4:20 PM85 °FScattered clouds.10 mph72%29.74 "Hg10 mi
3:40 PM86 °FScattered clouds.12 mph70%29.73 "Hg10 mi
3:20 PM87 °FScattered clouds.10 mph70%29.74 "Hg10 mi
3:00 PM87 °FBroken clouds.9 mph70%29.74 "Hg10 mi
2:20 PM85 °FSunny.9 mph74%29.75 "Hg10 mi
12:20 PM87 °FScattered clouds.7 mph68%29.80 "Hg10 mi
12:00 PM87 °FScattered clouds.8 mph67%29.82 "Hg10 mi
Weather by CustomWeather, © 2015

See weather overviewHow to use our weather pages